Omaha, NE

10:45 PM CDT on August 31, 2016 (GMT -0500)
Millard Municipal

Weather History for KMLE - March, 2013

Change the Weather History Date:

Sunday, March 10, 2013

  Actual Average (KOMA) Record (KOMA)
Temperature  
Mean Temperature 29 °F 37 °F  
Max Temperature 35 °F 48 °F 77 °F (1967)
Min Temperature 23 °F 26 °F -3 °F (1948)
Degree Days  
Heating Degree Days 36 28  
Month to date heating degree days 299  
Since 1 July heating degree days 5097  
Cooling Degree Days 0 0  
Month to date cooling degree days 0  
Year to date cooling degree days 0  
Moisture  
Dew Point 28 °F    
Average Humidity 95    
Maximum Humidity 100    
Minimum Humidity 89    
Precipitation  
Precipitation 0.09 in 0.06 in 1.24 in (1973)
Month to date precipitation 0.50  
Year to date precipitation 2.07  
Snow  
Snow 0.00 in 0.20 in - ()
Month to date snowfall 1.7  
Since 1 July snowfall 22.9  
Snow Depth -    
Sea Level Pressure  
Sea Level Pressure 29.85 in    
Wind  
Wind Speed 14 mph (NNW)    
Max Wind Speed 23 mph    
Max Gust Speed 32 mph    
Visibility 3 miles    
Events Rain , Snow    
T = Trace of Precipitation, MM = Missing Value Source: NWS Daily Summary

Daily Weather History Graph

Daily Weather History Graph

Search for Another Location

Airport or City:

Trip Planner

Search our weather history database for the weather conditions in past years. The results will help you decide how hot, cold, wet, or windy it might be!

Date:

Astronomy

Mar. 10, 2013 Rise Set
Actual Time 7:43 AM CDT 7:25 PM CDT
Civil Twilight 7:16 AM CDT 7:53 PM CDT
Nautical Twilight 6:44 AM CDT 8:25 PM CDT
Astronomical Twilight 6:12 AM CDT 8:57 PM CDT
Moon 6:45 AM CDT (3/10) 6:34 PM CDT (3/10)
Length of Visible Light 12h 36m
Length of Day
11h 41m
Waning Crescent, 2% of the Moon is Illuminated
Mar 10
Waning Crescent
Mar 11
New
Mar 19
First Quarter
Mar 27
Full
Apr 2
Last Quarter

Hourly Weather History & Observations

Time (CDT) Temp. Windchill Dew Point Humidity Pressure Visibility Wind Dir Wind Speed Gust Speed Precip Events Conditions
12:15 AM 35.6 °F 26.6 °F 35.6 °F 100% 29.70 in 10.0 mi North 13.8 mph 20.7 mph N/A   Drizzle
12:35 AM 35.6 °F 28.0 °F 35.6 °F 100% 29.69 in 10.0 mi North 10.4 mph 19.6 mph N/A   Overcast
12:55 AM 35.2 °F 26.6 °F 35.2 °F 100% 29.71 in 10.0 mi North 12.7 mph 19.6 mph N/A Rain Rain
1:15 AM 34.7 °F 25.9 °F 34.7 °F 100% 29.72 in 7.0 mi NNW 12.7 mph 20.7 mph 0.01 in Rain Light Rain
1:35 AM 34.7 °F 25.9 °F 34.7 °F 100% 29.74 in 7.0 mi NNW 12.7 mph 18.4 mph 0.01 in Rain Light Rain
1:55 AM 34.2 °F 25.2 °F 34.2 °F 100% 29.74 in 7.0 mi NW 12.7 mph 21.9 mph 0.02 in Rain Light Rain
3:15 AM 33.8 °F 24.3 °F 33.8 °F 100% 29.74 in 4.0 mi North 13.8 mph 21.9 mph N/A Snow Light Snow
3:35 AM 33.4 °F 24.3 °F 33.4 °F 100% 29.73 in 10.0 mi NNW 12.7 mph 25.3 mph 0.02 in Rain Light Rain
3:55 AM 33.3 °F 22.8 °F 33.3 °F 100% 29.74 in 5.0 mi North 16.1 mph 23.0 mph 0.04 in Rain Rain
4:15 AM 33.1 °F 24.4 °F 33.1 °F 100% 29.74 in 7.0 mi North 11.5 mph 21.9 mph 0.01 in Rain Rain
4:35 AM 33.1 °F 24.4 °F 33.1 °F 100% 29.74 in 7.0 mi NNW 11.5 mph 25.3 mph 0.01 in   Overcast
4:55 AM 32.9 °F 22.4 °F 32.9 °F 100% 29.75 in 7.0 mi North 16.1 mph 24.2 mph 0.01 in Rain Light Rain
5:15 AM 32.9 °F 21.6 °F 32.5 °F 99% 29.74 in 7.0 mi North 18.4 mph 28.8 mph N/A   Overcast
5:35 AM 32.9 °F 25.3 °F 32.2 °F 97% 29.75 in 10.0 mi NNW 9.2 mph 24.2 mph N/A   Overcast
5:55 AM 32.9 °F 23.2 °F 32.0 °F 96% 29.76 in 10.0 mi North 13.8 mph 32.2 mph N/A Snow Light Snow
6:15 AM 32.5 °F 23.2 °F 32.0 °F 98% 29.77 in 5.0 mi North 12.7 mph 32.2 mph N/A Snow Light Snow
7:35 AM 31.5 °F 20.5 °F 31.5 °F 100% 29.79 in 0.8 mi NNW 16.1 mph 26.5 mph N/A Snow Snow
7:55 AM 30.9 °F 19.8 °F 30.9 °F 100% 29.81 in 0.5 mi NNW 16.1 mph 24.2 mph 0.01 in Snow Snow
8:15 AM 30.7 °F 19.6 °F 30.7 °F 100% 29.82 in 0.5 mi NNW 16.1 mph 27.6 mph N/A Snow Light Snow
8:35 AM 30.7 °F 19.2 °F 30.2 °F 98% 29.81 in 0.8 mi NNW 17.3 mph 26.5 mph N/A Snow Light Snow
8:55 AM 30.6 °F 19.4 °F 29.7 °F 96% 29.82 in 1.0 mi North 16.1 mph 28.8 mph N/A Snow Light Snow
9:15 AM 30.6 °F 19.4 °F 29.7 °F 96% 29.83 in 1.0 mi NNW 16.1 mph 24.2 mph N/A Snow Light Snow
9:35 AM 30.2 °F 19.8 °F 29.3 °F 96% 29.82 in 1.0 mi North 13.8 mph 26.5 mph N/A Snow Light Snow
9:55 AM 30.0 °F 20.5 °F 29.1 °F 96% 29.82 in 0.8 mi North 11.5 mph 26.5 mph N/A Snow Light Snow
10:15 AM 29.8 °F 19.3 °F 28.6 °F 95% 29.85 in 1.2 mi North 13.8 mph 29.9 mph N/A Snow Light Snow
10:35 AM 29.3 °F 19.1 °F 28.2 °F 96% 29.85 in 1.2 mi NNW 12.7 mph 26.5 mph N/A Snow Light Snow
10:55 AM 29.3 °F 18.6 °F 27.5 °F 93% 29.86 in 1.2 mi NNW 13.8 mph 24.2 mph N/A Snow Light Snow
11:15 AM 29.3 °F 18.6 °F 27.9 °F 94% 29.86 in 1.2 mi North 13.8 mph 25.3 mph N/A Snow Light Snow
11:35 AM 29.3 °F 17.7 °F 27.5 °F 93% 29.85 in 1.0 mi NNW 16.1 mph 28.8 mph N/A Snow Light Snow
11:55 AM 29.3 °F 20.2 °F 27.5 °F 93% 29.87 in 1.0 mi NNW 10.4 mph 27.6 mph N/A Snow Light Snow
12:15 PM 29.3 °F 17.7 °F 27.1 °F 92% 29.87 in 1.2 mi NNW 16.1 mph 24.2 mph N/A Snow Light Snow
12:35 PM 29.1 °F 18.9 °F 27.0 °F 92% 29.88 in 0.8 mi NNW 12.7 mph 27.6 mph 0.01 in Snow Light Snow
12:55 PM 28.9 °F 16.1 °F 27.0 °F 92% 29.88 in 0.8 mi NNW 19.6 mph 29.9 mph 0.01 in Snow Light Snow
1:15 PM 28.9 °F 17.3 °F 26.8 °F 92% 29.87 in 0.8 mi North 16.1 mph 28.8 mph N/A Snow Light Snow
1:35 PM 28.4 °F 16.2 °F 26.6 °F 93% 29.86 in 0.8 mi NNW 17.3 mph 25.3 mph N/A Snow Light Snow
1:55 PM 28.4 °F 16.2 °F 26.8 °F 94% 29.85 in 0.8 mi NNW 17.3 mph 29.9 mph N/A Snow Light Snow
2:15 PM 28.4 °F 16.6 °F 27.1 °F 95% 29.85 in 0.5 mi NNW 16.1 mph 29.9 mph N/A Snow Light Snow
2:35 PM 28.4 °F 17.0 °F 27.3 °F 96% 29.85 in 0.5 mi NNW 15.0 mph 27.6 mph N/A Snow Light Snow
2:55 PM 28.4 °F 15.4 °F 27.3 °F 96% 29.85 in 0.5 mi NNW 19.6 mph 28.8 mph N/A Snow Snow
3:15 PM 28.2 °F 16.3 °F 27.3 °F 96% 29.85 in 0.5 mi NW 16.1 mph 26.5 mph N/A Snow Snow
3:35 PM 27.5 °F 15.4 °F 26.6 °F 96% 29.86 in 0.5 mi NNW 16.1 mph 27.6 mph N/A Snow Snow
3:55 PM 27.5 °F 15.9 °F 26.2 °F 95% 29.86 in 0.5 mi NNW 15.0 mph 31.1 mph N/A Snow Light Snow
4:15 PM 27.3 °F 13.6 °F 25.7 °F 94% 29.87 in 0.5 mi NNW 20.7 mph 28.8 mph N/A Snow Light Snow
4:35 PM 27.1 °F 14.9 °F 25.5 °F 94% 29.88 in 1.0 mi NW 16.1 mph 26.5 mph N/A Snow Light Snow
4:55 PM 26.6 °F 12.0 °F 25.2 °F 94% 29.88 in 0.8 mi NW 23.0 mph 29.9 mph N/A Snow Light Snow
5:15 PM 26.2 °F 13.8 °F 24.8 °F 94% 29.88 in 0.8 mi NNW 16.1 mph 28.8 mph N/A Snow Light Snow
5:35 PM 26.1 °F 12.3 °F 24.8 °F 95% 29.89 in 0.8 mi NW 19.6 mph 25.3 mph N/A Snow Light Snow
5:55 PM 25.7 °F 12.3 °F 24.4 °F 95% 29.89 in 1.0 mi NW 18.4 mph 28.8 mph N/A Snow Light Snow
6:15 PM 25.7 °F 13.1 °F 24.1 °F 94% 29.89 in 1.2 mi NW 16.1 mph 25.3 mph N/A Snow Light Snow
6:35 PM 25.7 °F 12.7 °F 23.9 °F 93% 29.90 in 1.5 mi NW 17.3 mph 28.8 mph N/A Snow Light Snow
6:55 PM 25.5 °F 12.9 °F 23.7 °F 93% 29.91 in 1.2 mi NW 16.1 mph 25.3 mph N/A Snow Light Snow
7:15 PM 25.5 °F 13.3 °F 23.7 °F 93% 29.91 in 1.5 mi NW 15.0 mph 26.5 mph N/A Snow Light Snow
7:35 PM 25.5 °F 13.3 °F 23.7 °F 93% 29.92 in 1.8 mi NW 15.0 mph 24.2 mph N/A Snow Light Snow
7:55 PM 25.5 °F 13.8 °F 23.7 °F 93% 29.92 in 3.0 mi NW 13.8 mph 24.2 mph N/A Snow Light Snow
8:15 PM 25.5 °F 13.3 °F 23.9 °F 94% 29.92 in 2.0 mi NW 15.0 mph 25.3 mph N/A Snow Light Snow
8:35 PM 25.3 °F 12.2 °F 23.9 °F 94% 29.92 in 1.5 mi NW 17.3 mph 21.9 mph N/A Snow Light Snow
8:55 PM 25.5 °F 13.3 °F 23.9 °F 94% 29.92 in 2.0 mi NW 15.0 mph 21.9 mph N/A Snow Light Snow
9:15 PM 25.5 °F 13.3 °F 23.9 °F 94% 29.93 in 2.0 mi NW 15.0 mph 20.7 mph N/A Snow Light Snow
9:35 PM 25.5 °F 14.3 °F 23.9 °F 94% 29.93 in 3.0 mi NW 12.7 mph 20.7 mph N/A Snow Light Snow
9:55 PM 25.7 °F 13.1 °F 23.9 °F 93% 29.94 in 4.0 mi NNW 16.1 mph 25.3 mph N/A Snow Light Snow
10:15 PM 25.7 °F 11.5 °F 23.0 °F 89% 29.94 in 7.0 mi NW 20.7 mph 25.3 mph N/A Snow Light Snow
10:35 PM 24.8 °F 12.9 °F 22.6 °F 91% 29.95 in 1.8 mi NNW 13.8 mph 21.9 mph N/A Snow Light Snow
10:55 PM 24.8 °F 12.9 °F 22.5 °F 91% 29.95 in 3.0 mi NW 13.8 mph 20.7 mph N/A Snow Light Snow
11:15 PM 24.3 °F 10.8 °F 22.1 °F 91% 29.95 in 2.5 mi NNW 17.3 mph 25.3 mph N/A Snow Light Snow
11:35 PM 24.3 °F 11.2 °F 21.9 °F 91% 29.95 in 3.0 mi NW 16.1 mph 23.0 mph N/A Snow Light Snow
12:15 AM 23.7 °F 10.5 °F 21.2 °F 90% 29.94 in 4.0 mi NW 16.1 mph 21.9 mph N/A Snow Light Snow
12:35 AM 23.5 °F 11.8 °F 21.2 °F 91% 29.93 in 3.0 mi NNW 12.7 mph 21.9 mph N/A Snow Light Snow
12:55 AM 23.5 °F 10.8 °F 21.2 °F 91% 29.93 in 3.0 mi NNW 15.0 mph 19.6 mph N/A Snow Light Snow